[[{"header":{"parameterUnit":"m.s-1","parameterCategory":2,"la1":30.2991,"la2":30.254,"lo1":-89.0895,"lo2":-89.0444,"dy":0.0017,"dx":0.0017,"nx":28,"ny":28,"refTime":"2025-11-22T03:00:00:Z","depth":"0","parameterNumber":2,"parameterNumberName":"U-component_of_CURRENTS"},"data":[0,0,0,0,0,0,0,0,0,0,0,0,0,0,0,0,0,0,0,0,0,0,0,0,0,0,0,0,0,0,0,0,0,0,0,0,0,0,0,0,0,0,0,0,0,0,0,0,0,0,0,0,0,0,0,0,0,0,-0.3048,-0.3049,0,-0.3054,-0.3053,-0.3053,-0.3065,-0.3066,-0.3066,-0.3067,-0.2995,-0.2993,-0.299,0,0,0,0,0,0,0,0,0,0,0,0,0,-0.298,-0.2981,-0.3048,-0.3049,-0.305,-0.3054,-0.3053,-0.3053,-0.3065,-0.3066,-0.3067,-0.3068,-0.2996,-0.2993,-0.299,0,0,0,0,0,0,0,0,0,0,0,0,0,-0.2994,-0.2981,-0.3048,-0.3061,-0.3062,-0.3054,-0.3053,-0.3053,-0.3064,-0.3066,-0.3067,-0.3068,-0.2997,-0.2993,-0.2989,-0.2941,0,0,-0.2977,-0.2975,0,0,0,0,0,0,0,0,-0.2994,-0.2996,-0.3058,-0.306,-0.3062,-0.3065,-0.3003,-0.3014,-0.3064,-0.3057,-0.3067,-0.3069,-0.3014,-0.3009,-0.3,-0.2937,-0.2934,-0.2977,-0.2974,-0.2973,-0.2971,0,0,0,0,0,0,0,-0.2993,-0.2996,-0.3044,-0.3059,-0.3061,-0.3043,-0.3046,-0.3005,-0.3023,-0.3058,-0.306,-0.307,-0.3014,-0.3004,-0.2998,-0.2933,-0.2977,-0.2973,-0.2971,-0.2969,-0.2876,-0.2876,0,0,0,0,0,0,-0.3007,-0.2995,-0.3044,-0.3045,-0.3037,-0.3044,-0.3047,-0.3058,-0.3025,-0.3024,-0.3069,-0.3071,-0.301,-0.3003,-0.2996,-0.2979,-0.2973,-0.2969,-0.2967,-0.2876,-0.2876,-0.2876,0,0,0,0,0,0,-0.3005,-0.3011,-0.3044,-0.3025,-0.3029,-0.3045,-0.3056,-0.3058,-0.3052,-0.3036,-0.3032,-0.3064,-0.3011,-0.3001,-0.2966,-0.2975,-0.2967,-0.2963,-0.2877,-0.2876,-0.2876,-0.2918,0,0,0,0,0,0,-0.3003,-0.301,-0.3007,-0.3026,-0.3031,-0.3035,-0.3056,-0.3057,-0.3059,-0.3061,-0.3029,-0.3024,-0.3011,-0.2972,-0.2962,-0.2969,-0.296,-0.2877,-0.2877,-0.2876,-0.2916,-0.2919,-0.2921,0,0,0,0,0,-0.3,-0.2987,-0.3007,-0.3013,-0.3032,-0.3035,-0.3034,-0.3046,-0.3057,-0.3045,-0.3034,-0.3025,-0.2965,-0.2968,-0.2956,-0.2963,-0.2877,-0.2877,-0.2876,-0.2915,-0.2918,-0.2921,0,0,0,0,0,0,-0.2945,-0.2989,-0.301,-0.3009,-0.3025,-0.304,-0.3024,-0.3042,-0.3022,-0.3021,-0.301,-0.3002,-0.2982,-0.2957,-0.2961,-0.2936,-0.2924,-0.2921,-0.2957,-0.296,-0.2962,-0.2969,-0.2957,0,0,0,0,0,-0.2938,-0.294,-0.2982,-0.2975,-0.2986,-0.3006,-0.3006,-0.3021,-0.3017,-0.3011,-0.2997,-0.298,-0.2969,-0.2953,-0.2931,-0.2899,-0.2877,-0.29,-0.2902,-0.2905,-0.2902,-0.2885,-0.2886,-0.2876,-0.2876,-0.2876,0,0,-0.2909,-0.2935,-0.2934,-0.2964,-0.2973,-0.2992,-0.3006,-0.3005,-0.3022,-0.3002,-0.2995,-0.2981,-0.2962,-0.2946,-0.2934,-0.2926,-0.2893,-0.2904,-0.2907,-0.2903,-0.2885,-0.2886,-0.2887,-0.2876,-0.2876,-0.2876,0,0,-0.2867,-0.2884,-0.2884,-0.2906,-0.2936,-0.2957,-0.2962,-0.2983,-0.2991,-0.2983,-0.2989,-0.2979,-0.2943,-0.2946,-0.2942,-0.2935,-0.2908,-0.293,-0.2943,-0.2926,-0.2927,-0.2927,-0.289,-0.2887,-0.2929,-0.2929,-0.2929,0,-0.2836,-0.2856,-0.2878,-0.2897,-0.2918,-0.2948,-0.2965,-0.2975,-0.2982,-0.2989,-0.2983,-0.2965,-0.295,-0.2952,-0.2961,-0.2943,-0.2919,-0.2937,-0.293,-0.293,-0.293,-0.2891,-0.2888,-0.2931,-0.2931,-0.2931,-0.2931,0,-0.2812,-0.2834,-0.283,-0.288,-0.2896,-0.2905,-0.2951,-0.296,-0.2976,-0.2994,-0.2992,-0.2973,-0.2967,-0.2967,-0.2962,-0.2961,-0.2939,-0.2939,-0.2927,-0.2934,-0.2892,-0.2887,-0.2934,-0.2933,-0.2933,-0.2932,0,0,-0.2728,-0.2804,-0.2803,-0.2838,-0.2894,-0.2906,-0.2938,-0.2975,-0.2997,-0.2997,-0.3013,-0.3005,-0.3,-0.2994,-0.2988,-0.2975,-0.2956,-0.2958,-0.2956,-0.2926,-0.29,-0.279,-0.2774,-0.2956,-0.2956,-0.2956,-0.2868,0,-0.2707,-0.2747,-0.2791,-0.2826,-0.2856,-0.2909,-0.2938,-0.2975,-0.2997,-0.3015,-0.3015,-0.3017,-0.3011,-0.3006,-0.2996,-0.2976,-0.2946,-0.2978,-0.2892,-0.2889,-0.2796,-0.2766,-0.2647,-0.2551,-0.2863,-0.2862,-0.2862,0,-0.2673,-0.2713,-0.275,-0.2831,-0.2846,-0.287,-0.2928,-0.296,-0.3004,-0.3019,-0.3029,-0.3031,-0.3029,-0.3013,-0.297,-0.299,-0.2942,-0.2915,-0.2911,-0.279,-0.277,-0.2595,-0.253,-0.2521,-0.2854,-0.2854,-0.2855,0,-0.2607,-0.268,-0.2711,-0.2738,-0.2829,-0.285,-0.2892,-0.2949,-0.2974,-0.3016,-0.3024,-0.3033,-0.3015,-0.2987,-0.2932,-0.2953,-0.2863,-0.2885,-0.2732,-0.2723,-0.2593,-0.2573,-0.2512,-0.2826,-0.2827,-0.2827,-0.2827,0,-0.2572,-0.2591,-0.2683,-0.2701,-0.273,-0.281,-0.2838,-0.2887,-0.2945,-0.2956,-0.3011,-0.3,-0.3005,-0.296,-0.2925,-0.2798,-0.285,-0.2715,-0.2689,-0.2601,-0.2584,-0.2547,-0.2589,-0.2824,-0.2824,-0.2825,-0.2825,0,-0.2482,-0.2551,-0.2586,-0.2677,-0.27,-0.2713,-0.2795,-0.2814,-0.2888,-0.2903,-0.2912,-0.2957,-0.2896,-0.287,-0.2804,-0.2753,-0.2617,-0.2605,-0.2488,-0.2448,-0.2303,-0.2351,-0.226,-0.2192,-0.2433,-0.2429,-0.2426,0,-0.2437,-0.2447,-0.2533,-0.2544,-0.2578,-0.2621,-0.2645,-0.2754,-0.2779,-0.2856,-0.2844,-0.282,-0.2752,-0.2626,-0.2534,-0.2419,-0.2454,-0.2258,-0.2273,-0.2254,-0.2291,-0.2344,-0.2299,-0.2118,-0.2113,-0.2109,-0.2106,0,-0.2329,-0.2359,-0.2386,-0.2418,-0.2444,-0.2479,-0.2528,-0.2548,-0.2661,-0.2676,-0.2663,-0.2621,-0.2505,-0.2338,-0.2209,-0.2139,-0.2212,-0.2166,-0.2182,-0.2056,-0.2075,-0.2009,-0.222,-0.2069,-0.2072,-0.2075,-0.2077,-0.2079,-0.2216,-0.2206,-0.2243,-0.2254,-0.2288,-0.2301,-0.227,-0.2336,-0.2346,-0.2317,-0.2419,-0.2295,-0.2221,-0.201,-0.1933,-0.1796,-0.1895,-0.1768,-0.1832,-0.189,-0.181,-0.1921,-0.1722,-0.1724,-0.1725,-0.1727,-0.1728,0,-0.2058,-0.2065,-0.2074,-0.2086,-0.2054,-0.213,-0.2149,-0.2076,-0.2012,-0.2007,-0.1962,-0.1908,-0.1763,-0.1711,-0.1602,-0.1516,-0.1498,-0.1502,-0.1574,-0.1544,-0.1652,-0.1622,-0.1347,-0.1347,-0.1347,-0.1347,-0.1347,-0.1348,-0.198,-0.1923,-0.1934,-0.1833,-0.1836,-0.1732,-0.1698,-0.1602,-0.154,-0.1395,-0.1356,-0.1332,-0.1449,-0.1638,-0.1532,-0.1442,-0.144,-0.1379,-0.1433,-0.1552,-0.1583,-0.1614,-0.1594,-0.1318,-0.1318,-0.1252,-0.1252,-0.1252]},{"header":{"parameterUnit":"m.s-1","parameterCategory":2,"la1":30.2991,"la2":30.254,"lo1":-89.0895,"lo2":-89.0444,"dy":0.0017,"dx":0.0017,"nx":28,"ny":28,"refTime":"2025-11-22T03:00:00:Z","depth":"0","parameterNumber":3,"parameterNumberName":"V-component_of_CURRENTS"},"data":[0,0,0,0,0,0,0,0,0,0,0,0,0,0,0,0,0,0,0,0,0,0,0,0,0,0,0,0,0,0,0,0,0,0,0,0,0,0,0,0,0,0,0,0,0,0,0,0,0,0,0,0,0,0,0,0,0,0,-0.0115,-0.0114,0,-0.0007,-0.0006,-0.0004,0.0113,0.0115,0.0117,0.0118,0.0256,0.0258,0.026,0,0,0,0,0,0,0,0,0,0,0,0,0,-0.0186,-0.0186,-0.0115,-0.0114,-0.0112,-0.0007,-0.0006,-0.0004,0.0113,0.0115,0.0117,0.0119,0.0255,0.0258,0.026,0,0,0,0,0,0,0,0,0,0,0,0,0,-0.0125,-0.0186,-0.0115,-0.0041,-0.0034,-0.0007,-0.0005,-0.0004,0.0113,0.0115,0.0118,0.012,0.0255,0.0258,0.0261,0.023,0,0,0.0271,0.0272,0,0,0,0,0,0,0,0,-0.0128,-0.0122,-0.0054,-0.0046,-0.0038,0.0042,0.002,0.0076,0.0112,0.0057,0.0118,0.0121,0.0185,0.0194,0.0209,0.0237,0.0243,0.0271,0.0273,0.0274,0.0275,0,0,0,0,0,0,0,-0.0133,-0.0126,-0.0072,-0.0052,-0.0043,-0.0002,0.0009,0.0031,0.0106,0.0062,0.0071,0.0082,0.019,0.0206,0.0213,0.0245,0.0271,0.0274,0.0275,0.0277,0.0322,0.0322,0,0,0,0,0,0,-0.0151,-0.013,-0.0075,-0.0069,-0.0078,-0.0003,0.001,0.0014,0.0106,0.0122,0.008,0.0087,0.0199,0.0209,0.0218,0.0231,0.0274,0.0277,0.0279,0.0323,0.0322,0.0321,0,0,0,0,0,0,-0.0153,-0.0148,-0.008,-0.0097,-0.0085,-0.0005,-0.0,0.0015,0.0035,0.0119,0.0136,0.0085,0.0201,0.0214,0.0241,0.0236,0.0278,0.0281,0.0324,0.0323,0.0322,0.0229,0,0,0,0,0,0,-0.0156,-0.0149,-0.0163,-0.0098,-0.0085,-0.0075,-0.0002,0.0015,0.0038,0.0049,0.0128,0.0144,0.0204,0.0236,0.0245,0.0241,0.0284,0.0325,0.0323,0.0322,0.0232,0.0224,0.0218,0,0,0,0,0,-0.0159,-0.0189,-0.0164,-0.0158,-0.0103,-0.0076,-0.0066,0.0001,0.0035,0.003,0.0092,0.0142,0.0235,0.0237,0.0248,0.0245,0.0325,0.0324,0.0322,0.0236,0.0226,0.0218,0,0,0,0,0,0,-0.0231,-0.0178,-0.0149,-0.0163,-0.0126,-0.0056,-0.0058,-0.0016,0.0026,0.0039,0.0122,0.0141,0.0168,0.0208,0.0209,0.0255,0.0292,0.0292,0.0223,0.0214,0.0207,0.0196,0.0286,0,0,0,0,0,-0.0256,-0.026,-0.0202,-0.0215,-0.0201,-0.0135,-0.0119,-0.0075,-0.0025,-0.0002,0.0056,0.0116,0.0165,0.019,0.0234,0.0243,0.0302,0.0252,0.0244,0.0238,0.0236,0.0314,0.0314,0.0316,0.0316,0.0316,0,0,-0.0288,-0.026,-0.0263,-0.0231,-0.0196,-0.0186,-0.0119,-0.0104,-0.0087,0.0001,0.0031,0.0085,0.016,0.0187,0.0203,0.0223,0.0267,0.0236,0.023,0.0232,0.0313,0.0313,0.0313,0.0315,0.0315,0.0316,0,0,-0.0348,-0.033,-0.0347,-0.0324,-0.0282,-0.024,-0.0242,-0.018,-0.0144,-0.0119,-0.004,0.0009,0.0067,0.0133,0.0171,0.0141,0.0222,0.0153,0.011,0.0185,0.0185,0.0187,0.0256,0.0264,0.0152,0.0152,0.0152,0,-0.0387,-0.0396,-0.0352,-0.0357,-0.0343,-0.027,-0.028,-0.0241,-0.0176,-0.015,-0.0121,-0.0008,0.0049,0.0108,0.0105,0.0127,0.0178,0.0137,0.0175,0.0178,0.0181,0.0252,0.0263,0.0147,0.0148,0.0148,0.0149,0,-0.0446,-0.0454,-0.0467,-0.0442,-0.0427,-0.0429,-0.0364,-0.0342,-0.0293,-0.0238,-0.0179,-0.0096,-0.002,0.0002,0.0044,0.0092,0.0125,0.0154,0.0197,0.0175,0.0251,0.0264,0.014,0.0142,0.0144,0.0145,0,0,-0.0522,-0.051,-0.0512,-0.0516,-0.0471,-0.0465,-0.0443,-0.0396,-0.037,-0.0303,-0.0259,-0.0177,-0.0119,-0.0072,-0.0005,0.0055,0.0116,0.0101,0.0107,0.0167,0.0279,0.0327,0.0346,0.0152,0.0153,0.0155,0.0322,0,-0.0576,-0.0616,-0.0584,-0.0612,-0.0625,-0.0557,-0.0541,-0.0488,-0.0422,-0.0364,-0.0262,-0.0202,-0.0148,-0.0112,-0.0043,0.0082,0.0146,0.0068,0.0294,0.03,0.0344,0.0361,0.042,0.0575,0.0334,0.0337,0.0338,0,-0.0634,-0.0654,-0.0698,-0.0693,-0.069,-0.0689,-0.0641,-0.0615,-0.0511,-0.0458,-0.0369,-0.0281,-0.0175,-0.0133,0.0073,0.002,0.0135,0.0228,0.0238,0.0326,0.0372,0.0561,0.0608,0.0782,0.0358,0.0357,0.0355,0,-0.0708,-0.0728,-0.0769,-0.0768,-0.075,-0.0748,-0.0728,-0.0647,-0.0618,-0.0511,-0.047,-0.0326,-0.0242,-0.0088,0.0109,0.0093,0.034,0.035,0.0504,0.0509,0.0626,0.0638,0.087,0.0489,0.0489,0.0488,0.0488,0,-0.0778,-0.0807,-0.0809,-0.0833,-0.087,-0.0824,-0.0828,-0.0779,-0.0697,-0.0652,-0.0525,-0.0443,-0.0228,-0.0057,0.0106,0.0356,0.035,0.0507,0.0561,0.0594,0.06,0.0811,0.0863,0.0495,0.0493,0.0492,0.0491,0,-0.0849,-0.0851,-0.0899,-0.0906,-0.0909,-0.0934,-0.0908,-0.0897,-0.0813,-0.0744,-0.0715,-0.0516,-0.0285,-0.006,0.0218,0.0363,0.0705,0.0668,0.0688,0.074,0.1021,0.1063,0.1335,0.1453,0.0862,0.0864,0.0866,0,-0.0889,-0.0924,-0.0966,-0.0999,-0.1005,-0.1028,-0.1036,-0.0968,-0.0942,-0.0775,-0.0742,-0.0511,-0.0311,0.0113,0.04,0.0712,0.0835,0.0931,0.0907,0.106,0.1147,0.1171,0.1252,0.1031,0.1034,0.1036,0.1038,0,-0.096,-0.0973,-0.1013,-0.109,-0.1121,-0.1148,-0.1146,-0.1141,-0.1032,-0.0918,-0.0725,-0.0547,-0.0142,0.0255,0.0638,0.0822,0.1069,0.0991,0.1165,0.1312,0.1341,0.1472,0.0887,0.1061,0.1059,0.1057,0.1056,0.1055,-0.1,-0.1051,-0.1104,-0.1169,-0.1212,-0.1242,-0.1229,-0.1168,-0.1073,-0.0813,-0.069,-0.0282,0.0148,0.0711,0.0907,0.1333,0.1273,0.1468,0.1512,0.1526,0.1628,0.1079,0.1295,0.1294,0.1294,0.1293,0.1292,0,-0.1042,-0.1097,-0.1176,-0.1245,-0.1293,-0.1293,-0.1273,-0.1175,-0.1004,-0.0686,-0.0408,0.0227,0.0698,0.111,0.1618,0.1848,0.1896,0.1961,0.2026,0.2088,0.1639,0.1634,0.1915,0.1915,0.1915,0.1914,0.1914,0.1914,-0.1062,-0.1146,-0.119,-0.1283,-0.1325,-0.1301,-0.1263,-0.1053,-0.0792,-0.0238,0.0251,0.0582,0.1089,0.1792,0.2272,0.2322,0.2524,0.2498,0.2601,0.2295,0.2252,0.2211,0.2223,0.2622,0.2623,0.3061,0.3065,0.3068]}],[{"header":{"parameterUnit":"m.s-1","parameterCategory":2,"la1":30.2991,"la2":30.254,"lo1":-89.0895,"lo2":-89.0444,"dy":0.0017,"dx":0.0017,"nx":28,"ny":28,"refTime":"2025-11-22T03:00:00:Z","depth":"2","parameterNumber":2,"parameterNumberName":"U-component_of_CURRENTS"},"data":[0,0,0,0,0,0,0,0,0,0,0,0,0,0,0,0,0,0,0,0,0,0,0,0,0,0,0,0,0,0,0,0,0,0,0,0,0,0,0,0,0,0,0,0,0,0,0,0,0,0,0,0,0,0,0,0,0,0,-0.2616,-0.2617,0,-0.2664,-0.2665,-0.2665,-0.2643,-0.2642,-0.2641,-0.264,-0.2631,-0.2632,-0.2633,0,0,0,0,0,0,0,0,0,0,0,0,0,-0.251,-0.2512,-0.2616,-0.2617,-0.2618,-0.2664,-0.2665,-0.2665,-0.2643,-0.2642,-0.2641,-0.264,-0.2631,-0.2632,-0.2633,0,0,0,0,0,0,0,0,0,0,0,0,0,-0.2555,-0.2512,-0.2616,-0.2614,-0.2615,-0.2664,-0.2665,-0.2665,-0.2643,-0.2642,-0.264,-0.2639,-0.2631,-0.2632,-0.2633,-0.2669,0,0,-0.2636,-0.2636,0,0,0,0,0,0,0,0,-0.2552,-0.2558,-0.2614,-0.2615,-0.2615,-0.2648,-0.2624,-0.2664,-0.2644,-0.263,-0.264,-0.2638,-0.2634,-0.2635,-0.2645,-0.2668,-0.2668,-0.2636,-0.2637,-0.2637,-0.2637,0,0,0,0,0,0,0,-0.2549,-0.2556,-0.2633,-0.2615,-0.2616,-0.2613,-0.2617,-0.2632,-0.2637,-0.2631,-0.263,-0.264,-0.2634,-0.2644,-0.2644,-0.2668,-0.2636,-0.2637,-0.2638,-0.2638,-0.269,-0.2691,0,0,0,0,0,0,-0.255,-0.2554,-0.2631,-0.2635,-0.2582,-0.2616,-0.2621,-0.2637,-0.2638,-0.2638,-0.2641,-0.2639,-0.2643,-0.2643,-0.2644,-0.267,-0.2637,-0.2638,-0.2639,-0.269,-0.2691,-0.2691,0,0,0,0,0,0,-0.2548,-0.2557,-0.2629,-0.2596,-0.2605,-0.262,-0.2638,-0.2639,-0.2649,-0.2647,-0.2644,-0.265,-0.2642,-0.2642,-0.2656,-0.267,-0.2639,-0.2639,-0.2689,-0.269,-0.2691,-0.2732,0,0,0,0,0,0,-0.2544,-0.2556,-0.2569,-0.2597,-0.2608,-0.2659,-0.264,-0.2641,-0.2658,-0.2655,-0.2654,-0.2651,-0.2641,-0.2654,-0.2657,-0.267,-0.264,-0.2688,-0.2689,-0.2691,-0.273,-0.2735,-0.2739,0,0,0,0,0,-0.2541,-0.2564,-0.2569,-0.2579,-0.2625,-0.2661,-0.2666,-0.2668,-0.266,-0.267,-0.2666,-0.2651,-0.2665,-0.2656,-0.2659,-0.2673,-0.2687,-0.2689,-0.269,-0.2728,-0.2734,-0.2739,0,0,0,0,0,0,-0.2524,-0.2566,-0.2571,-0.2606,-0.2632,-0.2658,-0.267,-0.2677,-0.2685,-0.2679,-0.2669,-0.2667,-0.2683,-0.2676,-0.2667,-0.2692,-0.2671,-0.2674,-0.2699,-0.2704,-0.2709,-0.2702,-0.2641,0,0,0,0,0,-0.2529,-0.2554,-0.2592,-0.2617,-0.2633,-0.2654,-0.2669,-0.2676,-0.2689,-0.2691,-0.269,-0.2688,-0.2695,-0.2697,-0.2701,-0.2723,-0.2699,-0.2731,-0.2735,-0.2739,-0.2735,-0.2722,-0.2725,-0.2697,-0.2697,-0.2697,0,0,-0.2528,-0.2555,-0.2568,-0.2615,-0.2633,-0.2662,-0.2659,-0.2687,-0.2705,-0.269,-0.2707,-0.2708,-0.2705,-0.2722,-0.2728,-0.2716,-0.2733,-0.2741,-0.2745,-0.2738,-0.2724,-0.2727,-0.2729,-0.2698,-0.2698,-0.2698,0,0,-0.2533,-0.2565,-0.2583,-0.2613,-0.2651,-0.267,-0.2681,-0.2713,-0.272,-0.2746,-0.2735,-0.2744,-0.2757,-0.2756,-0.2758,-0.2792,-0.2759,-0.2794,-0.281,-0.2798,-0.28,-0.2802,-0.2766,-0.2764,-0.2794,-0.2794,-0.2794,0,-0.2526,-0.2561,-0.2594,-0.2623,-0.2647,-0.2675,-0.27,-0.2723,-0.2752,-0.2762,-0.2752,-0.2772,-0.2772,-0.279,-0.2799,-0.2802,-0.278,-0.2791,-0.2803,-0.2804,-0.2805,-0.2768,-0.2766,-0.2796,-0.2796,-0.2796,-0.2795,0,-0.2544,-0.2577,-0.2593,-0.2637,-0.2669,-0.2699,-0.2739,-0.2764,-0.2777,-0.2793,-0.2814,-0.2815,-0.2821,-0.2828,-0.2825,-0.2836,-0.2813,-0.2812,-0.2788,-0.281,-0.277,-0.2766,-0.2799,-0.2798,-0.2798,-0.2797,0,0,-0.2504,-0.2588,-0.2589,-0.2617,-0.2681,-0.2706,-0.275,-0.2792,-0.2813,-0.2834,-0.2851,-0.2869,-0.2865,-0.2866,-0.2864,-0.2856,-0.2844,-0.2837,-0.2836,-0.2798,-0.2797,-0.2696,-0.2682,-0.2845,-0.2845,-0.2845,-0.2763,0,-0.25,-0.2553,-0.2597,-0.2645,-0.2678,-0.2729,-0.2768,-0.2811,-0.2838,-0.2864,-0.2872,-0.2886,-0.2881,-0.2882,-0.2878,-0.2861,-0.2837,-0.2864,-0.2784,-0.2781,-0.2686,-0.2675,-0.2489,-0.2393,-0.2759,-0.2759,-0.2758,0,-0.2489,-0.2531,-0.2578,-0.2657,-0.2674,-0.2706,-0.2769,-0.2808,-0.286,-0.2879,-0.2898,-0.2905,-0.2911,-0.2896,-0.2864,-0.2881,-0.2837,-0.2813,-0.2809,-0.2696,-0.2673,-0.2432,-0.2372,-0.2752,-0.2752,-0.2753,-0.2753,0,-0.2433,-0.2512,-0.2547,-0.2575,-0.2669,-0.2695,-0.2738,-0.2802,-0.2831,-0.2881,-0.2894,-0.2913,-0.2903,-0.2879,-0.2833,-0.2849,-0.2775,-0.2791,-0.265,-0.2642,-0.2456,-0.2431,-0.2743,-0.2743,-0.2743,-0.2743,-0.2744,0,-0.2409,-0.2433,-0.2524,-0.2544,-0.258,-0.2661,-0.2697,-0.2747,-0.281,-0.2829,-0.2886,-0.2883,-0.2896,-0.2861,-0.2828,-0.2715,-0.2765,-0.2638,-0.2612,-0.2464,-0.2442,-0.2737,-0.2738,-0.274,-0.2741,-0.2741,-0.2742,0,-0.2331,-0.2399,-0.2439,-0.253,-0.2554,-0.2574,-0.2659,-0.2683,-0.2759,-0.2782,-0.2794,-0.2846,-0.2796,-0.2779,-0.2724,-0.2677,-0.2605,-0.2544,-0.2357,-0.2311,-0.2482,-0.2486,-0.2389,-0.2385,-0.2381,-0.2378,-0.2376,0,-0.2294,-0.2309,-0.2394,-0.2408,-0.2443,-0.2492,-0.2521,-0.2629,-0.2657,-0.274,-0.2733,-0.2721,-0.266,-0.2551,-0.2466,-0.2359,-0.2465,-0.2145,-0.2144,-0.2459,-0.2445,-0.2455,-0.2463,-0.1911,-0.1904,-0.1899,-0.1895,0,-0.2202,-0.2233,-0.2262,-0.2296,-0.2326,-0.2363,-0.2418,-0.2436,-0.2549,-0.2569,-0.2562,-0.2523,-0.2421,-0.2226,-0.2111,-0.204,-0.2158,-0.2038,-0.2399,-0.2037,-0.2003,-0.1991,-0.2016,-0.185,-0.1855,-0.1858,-0.1861,-0.1862,-0.2106,-0.2099,-0.2137,-0.2151,-0.2187,-0.2199,-0.217,-0.2241,-0.2252,-0.2239,-0.232,-0.2192,-0.2153,-0.1859,-0.1749,-0.1673,-0.1825,-0.1767,-0.1785,-0.1807,-0.1774,-0.1736,-0.1526,-0.1529,-0.1531,-0.1533,-0.1535,0,-0.197,-0.1979,-0.1987,-0.1999,-0.197,-0.2043,-0.2061,-0.1997,-0.194,-0.197,-0.1923,-0.1698,-0.1548,-0.1516,-0.1316,-0.1278,-0.1286,-0.1239,-0.126,-0.1303,-0.1343,-0.1289,-0.0911,-0.0909,-0.0907,-0.0906,0,0,-0.1898,-0.1854,-0.1859,-0.1765,-0.1767,-0.1664,-0.1629,-0.157,-0.1541,-0.1445,-0.1387,-0.1464,-0.1466,-0.1197,-0.1127,-0.0985,-0.1136,-0.0931,-0.1429,-0.1496,-0.1533,-0.1639,-0.1604,0,0,0,0,0]},{"header":{"parameterUnit":"m.s-1","parameterCategory":2,"la1":30.2991,"la2":30.254,"lo1":-89.0895,"lo2":-89.0444,"dy":0.0017,"dx":0.0017,"nx":28,"ny":28,"refTime":"2025-11-22T03:00:00:Z","depth":"2","parameterNumber":3,"parameterNumberName":"V-component_of_CURRENTS"},"data":[0,0,0,0,0,0,0,0,0,0,0,0,0,0,0,0,0,0,0,0,0,0,0,0,0,0,0,0,0,0,0,0,0,0,0,0,0,0,0,0,0,0,0,0,0,0,0,0,0,0,0,0,0,0,0,0,0,0,-0.0307,-0.0306,0,-0.0212,-0.0211,-0.021,-0.0154,-0.0154,-0.0154,-0.0153,-0.0001,0.0003,0.0007,0,0,0,0,0,0,0,0,0,0,0,0,0,-0.0373,-0.0373,-0.0307,-0.0306,-0.0305,-0.0212,-0.0211,-0.0209,-0.0154,-0.0154,-0.0154,-0.0153,-0.0003,0.0002,0.0007,0,0,0,0,0,0,0,0,0,0,0,0,0,-0.0317,-0.0372,-0.0307,-0.0267,-0.0263,-0.0213,-0.0211,-0.0209,-0.0154,-0.0154,-0.0153,-0.0153,-0.0004,0.0002,0.0008,0.0042,0,0,0.0026,0.0028,0,0,0,0,0,0,0,0,-0.032,-0.0314,-0.0274,-0.027,-0.0265,-0.0196,-0.0179,-0.0123,-0.0154,-0.0193,-0.0153,-0.0153,-0.0062,-0.0052,-0.0032,0.005,0.0056,0.0026,0.003,0.0033,0.0034,0,0,0,0,0,0,0,-0.0324,-0.0317,-0.0267,-0.0273,-0.0268,-0.0232,-0.0224,-0.0168,-0.0127,-0.019,-0.0186,-0.0178,-0.0059,-0.0038,-0.0028,0.0058,0.0026,0.0031,0.0035,0.0038,0.0177,0.0177,0,0,0,0,0,0,-0.0343,-0.0321,-0.027,-0.0265,-0.0295,-0.0231,-0.0222,-0.0217,-0.0129,-0.0116,-0.0179,-0.0176,-0.0048,-0.0035,-0.0022,0.0015,0.0032,0.0038,0.0042,0.0177,0.0177,0.0177,0,0,0,0,0,0,-0.0345,-0.034,-0.0274,-0.0292,-0.0282,-0.0231,-0.0225,-0.0215,-0.0194,-0.0121,-0.0107,-0.0168,-0.0048,-0.0031,0.0024,0.0021,0.0041,0.0046,0.0177,0.0177,0.0177,0.0095,0,0,0,0,0,0,-0.0347,-0.0341,-0.0344,-0.0294,-0.0282,-0.0253,-0.0225,-0.0213,-0.0191,-0.0187,-0.0107,-0.0093,-0.0046,0.0015,0.003,0.003,0.0051,0.0177,0.0177,0.0177,0.0098,0.0093,0.0088,0,0,0,0,0,-0.035,-0.0358,-0.0345,-0.0339,-0.0288,-0.0253,-0.0243,-0.0205,-0.0191,-0.0185,-0.0131,-0.0096,0.0027,0.002,0.0038,0.0039,0.0177,0.0177,0.0177,0.01,0.0094,0.0088,0,0,0,0,0,0,-0.0389,-0.0351,-0.0336,-0.0333,-0.03,-0.0245,-0.0237,-0.0209,-0.0162,-0.0158,-0.0089,-0.0071,-0.0026,0.002,0.0011,0.008,0.0106,0.011,0.0041,0.0036,0.0031,0.0012,0.0056,0,0,0,0,0,-0.0401,-0.0397,-0.0353,-0.0351,-0.0338,-0.0288,-0.027,-0.0244,-0.0196,-0.0176,-0.0121,-0.0062,-0.001,0.0022,0.0074,0.0117,0.0167,0.0129,0.0124,0.012,0.0117,0.0188,0.019,0.0178,0.0178,0.0178,0,0,-0.0417,-0.0396,-0.0394,-0.0359,-0.0331,-0.0319,-0.0276,-0.0255,-0.0241,-0.0165,-0.0131,-0.0077,-0.0003,0.0039,0.0064,0.0078,0.0149,0.012,0.0116,0.0115,0.0189,0.019,0.0191,0.0178,0.0178,0.0178,0,0,-0.045,-0.0428,-0.0436,-0.0413,-0.0378,-0.0345,-0.0342,-0.029,-0.0263,-0.0222,-0.0168,-0.0115,-0.0035,0.0016,0.0053,0.0056,0.0118,0.007,0.0035,0.0104,0.0106,0.0107,0.0166,0.0173,0.007,0.007,0.007,0,-0.0472,-0.0475,-0.0433,-0.0434,-0.0423,-0.0362,-0.0368,-0.0329,-0.0266,-0.0242,-0.0223,-0.0104,-0.0046,0.0015,0.001,0.0045,0.0089,0.0047,0.0097,0.01,0.0103,0.0163,0.0172,0.0066,0.0067,0.0067,0.0067,0,-0.0508,-0.051,-0.0513,-0.0495,-0.0475,-0.0469,-0.0416,-0.0389,-0.035,-0.0306,-0.0242,-0.0159,-0.0087,-0.0063,-0.0025,0.0025,0.005,0.0078,0.0106,0.0099,0.0162,0.0174,0.0061,0.0062,0.0063,0.0064,0,0,-0.0558,-0.0543,-0.0545,-0.0552,-0.0509,-0.0498,-0.0473,-0.0429,-0.0409,-0.034,-0.0304,-0.0217,-0.0167,-0.0122,-0.006,-0.0004,0.0053,0.0036,0.0041,0.0083,0.0199,0.0226,0.0241,0.0087,0.0089,0.009,0.0231,0,-0.06,-0.0629,-0.06,-0.0619,-0.063,-0.057,-0.0553,-0.0503,-0.0445,-0.0391,-0.0296,-0.024,-0.0189,-0.0157,-0.009,0.002,0.008,0.0012,0.0209,0.0215,0.0231,0.0254,0.0224,0.0348,0.0243,0.0245,0.0246,0,-0.0644,-0.0659,-0.0694,-0.0689,-0.0686,-0.0683,-0.0641,-0.0615,-0.0521,-0.0473,-0.0391,-0.0312,-0.0212,-0.0173,0.0014,-0.0033,0.0071,0.0155,0.0163,0.0225,0.0263,0.0342,0.0373,0.0266,0.0264,0.0263,0.0262,0,-0.071,-0.0722,-0.0756,-0.0755,-0.0737,-0.0736,-0.0717,-0.0645,-0.0619,-0.0522,-0.0484,-0.0352,-0.0279,-0.0135,0.0042,0.003,0.0249,0.0262,0.0386,0.0389,0.0422,0.0425,0.0391,0.0391,0.0391,0.039,0.039,0,-0.0768,-0.0793,-0.0793,-0.0813,-0.0847,-0.0805,-0.0811,-0.0766,-0.0693,-0.0656,-0.0534,-0.0462,-0.0267,-0.0115,0.0036,0.0253,0.0255,0.0388,0.0433,0.0392,0.039,0.0365,0.036,0.0396,0.0395,0.0394,0.0393,0,-0.0832,-0.0831,-0.0873,-0.0878,-0.0882,-0.0906,-0.0886,-0.0878,-0.08,-0.0743,-0.0716,-0.0536,-0.0332,-0.0128,0.0122,0.0249,0.0446,0.052,0.0452,0.0486,0.0539,0.0528,0.0671,0.0673,0.0675,0.0677,0.0678,0,-0.0867,-0.0897,-0.0934,-0.0966,-0.0972,-0.0995,-0.1005,-0.0944,-0.0922,-0.0776,-0.0747,-0.0546,-0.0373,0.0,0.0247,0.0522,0.0518,0.0641,0.0614,0.054,0.057,0.0556,0.0543,0.0627,0.0628,0.0629,0.0629,0,-0.0931,-0.0943,-0.0979,-0.1051,-0.1082,-0.1109,-0.111,-0.1109,-0.1014,-0.0922,-0.0758,-0.0606,-0.0254,0.0052,0.0385,0.0538,0.0591,0.0663,0.0633,0.055,0.0508,0.0534,0.0521,0.0635,0.0634,0.0634,0.0634,0.0633,-0.0971,-0.1018,-0.1066,-0.1128,-0.117,-0.1202,-0.1209,-0.1171,-0.1103,-0.0937,-0.0781,-0.051,-0.0236,0.0252,0.0482,0.0683,0.0683,0.0735,0.073,0.0725,0.0683,0.0646,0.0791,0.0791,0.0792,0.0792,0.0792,0,-0.1018,-0.1067,-0.1138,-0.1205,-0.1257,-0.1256,-0.1257,-0.1221,-0.1122,-0.0931,-0.0724,-0.0374,-0.0029,0.0246,0.0573,0.077,0.0743,0.0792,0.0719,0.0713,0.0708,0.0662,0.0767,0.0767,0.0767,0.0768,0,0,-0.1043,-0.1118,-0.1155,-0.1252,-0.1298,-0.1322,-0.1312,-0.122,-0.1082,-0.086,-0.0641,-0.0362,-0.0018,0.0209,0.0454,0.0617,0.0607,0.0626,0.0628,0.0507,0.0499,0.0662,0.0584,0,0,0,0,0]}],[{"header":{"parameterUnit":"m.s-1","parameterCategory":2,"la1":30.2991,"la2":30.254,"lo1":-89.0895,"lo2":-89.0444,"dy":0.0017,"dx":0.0017,"nx":28,"ny":28,"refTime":"2025-11-22T03:00:00:Z","depth":"4","parameterNumber":2,"parameterNumberName":"U-component_of_CURRENTS"},"data":[0,0,0,0,0,0,0,0,0,0,0,0,0,0,0,0,0,0,0,0,0,0,0,0,0,0,0,0,0,0,0,0,0,0,0,0,0,0,0,0,0,0,0,0,0,0,0,0,0,0,0,0,0,0,0,0,0,0,-0.181,-0.1811,0,-0.1896,-0.1897,-0.1898,-0.1935,-0.1935,-0.1935,-0.1935,-0.2018,-0.202,-0.2023,0,0,0,0,0,0,0,0,0,0,0,0,0,-0.1694,-0.1695,-0.1809,-0.1811,-0.1812,-0.1896,-0.1897,-0.1898,-0.1935,-0.1935,-0.1935,-0.1935,-0.2018,-0.202,-0.2023,0,0,0,0,0,0,0,0,0,0,0,0,0,-0.1757,-0.1696,-0.1809,-0.1842,-0.1846,-0.1896,-0.1897,-0.1898,-0.1935,-0.1935,-0.1935,-0.1935,-0.2017,-0.202,-0.2023,-0.2044,0,0,-0.2033,-0.2035,0,0,0,0,0,0,0,0,-0.1753,-0.1761,-0.1836,-0.184,-0.1844,-0.1906,-0.1887,-0.1947,-0.1935,-0.19,-0.1935,-0.1935,-0.1981,-0.1988,-0.2002,-0.2048,-0.2051,-0.2034,-0.2036,-0.2037,-0.2038,0,0,0,0,0,0,0,-0.1749,-0.1758,-0.1842,-0.1837,-0.1842,-0.1858,-0.1866,-0.1898,-0.1938,-0.1903,-0.1906,-0.1918,-0.1983,-0.1999,-0.2004,-0.2052,-0.2034,-0.2036,-0.2039,-0.204,-0.218,-0.2182,0,0,0,0,0,0,-0.174,-0.1754,-0.184,-0.1845,-0.1799,-0.186,-0.187,-0.1885,-0.1938,-0.1947,-0.1918,-0.1919,-0.1993,-0.2,-0.2007,-0.2096,-0.2037,-0.204,-0.2042,-0.2178,-0.218,-0.2182,0,0,0,0,0,0,-0.1738,-0.1747,-0.1836,-0.1802,-0.1815,-0.1862,-0.1879,-0.1887,-0.1932,-0.195,-0.1958,-0.1958,-0.1993,-0.2003,-0.2064,-0.2097,-0.2042,-0.2045,-0.2176,-0.2179,-0.2181,-0.2235,0,0,0,0,0,0,-0.1734,-0.1746,-0.1772,-0.1802,-0.1816,-0.1888,-0.1879,-0.1889,-0.1938,-0.1942,-0.1987,-0.1993,-0.1994,-0.2059,-0.2068,-0.2101,-0.2047,-0.2174,-0.2177,-0.218,-0.2231,-0.2239,-0.2246,0,0,0,0,0,-0.173,-0.1762,-0.1773,-0.1784,-0.1844,-0.1889,-0.1899,-0.1931,-0.194,-0.197,-0.2001,-0.1993,-0.2085,-0.2064,-0.2073,-0.2108,-0.2172,-0.2176,-0.218,-0.2228,-0.2238,-0.2246,0,0,0,0,0,0,-0.1727,-0.177,-0.1782,-0.1827,-0.1865,-0.1897,-0.1934,-0.1951,-0.2,-0.2013,-0.2022,-0.2031,-0.2094,-0.2098,-0.2075,-0.2158,-0.2125,-0.2131,-0.2158,-0.2168,-0.2175,-0.216,-0.205,0,0,0,0,0,-0.1737,-0.1774,-0.1811,-0.1851,-0.1873,-0.1909,-0.1939,-0.1961,-0.1999,-0.2021,-0.2052,-0.2083,-0.2114,-0.2139,-0.2167,-0.222,-0.2194,-0.2247,-0.2254,-0.226,-0.2255,-0.2251,-0.2257,-0.2195,-0.2195,-0.2195,0,0,-0.1749,-0.1777,-0.18,-0.1854,-0.1887,-0.1926,-0.1928,-0.1984,-0.2021,-0.2023,-0.2095,-0.2117,-0.2135,-0.2189,-0.2217,-0.22,-0.2265,-0.2265,-0.227,-0.2261,-0.2256,-0.2262,-0.2267,-0.2198,-0.2197,-0.2197,0,0,-0.1773,-0.1816,-0.1848,-0.1885,-0.1942,-0.1965,-0.1988,-0.204,-0.2073,-0.2138,-0.2144,-0.2187,-0.2246,-0.2257,-0.2269,-0.2337,-0.2305,-0.2354,-0.2382,-0.238,-0.2384,-0.2387,-0.2357,-0.2357,-0.2357,-0.2357,-0.2357,0,-0.1785,-0.1827,-0.1867,-0.1905,-0.1941,-0.1985,-0.2024,-0.2066,-0.2133,-0.2161,-0.2171,-0.225,-0.2271,-0.2315,-0.2339,-0.2353,-0.2336,-0.2345,-0.2387,-0.239,-0.2393,-0.236,-0.236,-0.236,-0.236,-0.236,-0.2359,0,-0.1818,-0.1867,-0.1894,-0.1953,-0.1997,-0.2047,-0.2099,-0.2153,-0.2197,-0.2227,-0.2297,-0.2325,-0.2363,-0.2383,-0.2385,-0.2423,-0.2398,-0.2395,-0.2358,-0.2402,-0.2365,-0.2364,-0.2365,-0.2364,-0.2363,-0.2362,0,0,-0.1794,-0.1896,-0.1907,-0.1945,-0.203,-0.2065,-0.2138,-0.2202,-0.2245,-0.231,-0.2355,-0.2414,-0.2427,-0.244,-0.245,-0.2454,-0.2463,-0.2439,-0.2438,-0.2397,-0.2438,-0.2274,-0.2256,-0.2469,-0.247,-0.247,-0.2402,0,-0.1806,-0.1879,-0.193,-0.2007,-0.2049,-0.2119,-0.2178,-0.2246,-0.2302,-0.2359,-0.2394,-0.2443,-0.2449,-0.2472,-0.2481,-0.2473,-0.2464,-0.248,-0.2411,-0.2408,-0.2248,-0.225,-0.2471,-0.24,-0.24,-0.24,-0.2399,0,-0.1806,-0.1859,-0.1935,-0.2035,-0.206,-0.2116,-0.2212,-0.2271,-0.2355,-0.2397,-0.2447,-0.2473,-0.2507,-0.25,-0.2493,-0.2505,-0.2475,-0.2457,-0.2454,-0.2276,-0.2241,-0.2351,-0.2396,-0.2397,-0.2397,-0.2397,-0.2397,0,-0.175,-0.1857,-0.192,-0.1957,-0.2075,-0.2128,-0.2192,-0.2285,-0.233,-0.2419,-0.2447,-0.2496,-0.2511,-0.2502,-0.2475,-0.249,-0.2438,-0.245,-0.2266,-0.2254,-0.24,-0.2397,-0.2425,-0.2425,-0.2425,-0.2425,-0.2425,0,-0.1723,-0.1776,-0.1906,-0.194,-0.2011,-0.2108,-0.2183,-0.2253,-0.2341,-0.2373,-0.2458,-0.2464,-0.2513,-0.2494,-0.2472,-0.2346,-0.2432,-0.2253,-0.2221,-0.2424,-0.2425,-0.2398,-0.2395,-0.2423,-0.2423,-0.2424,-0.2424,0,-0.1643,-0.1735,-0.181,-0.1945,-0.1988,-0.2038,-0.2164,-0.2204,-0.2306,-0.2345,-0.2371,-0.2439,-0.24,-0.2408,-0.2376,-0.2305,-0.223,-0.2163,-0.2356,-0.2341,-0.2049,-0.2051,-0.1947,-0.194,-0.1935,-0.193,-0.1927,0,-0.1603,-0.1639,-0.1787,-0.1826,-0.1891,-0.1983,-0.2035,-0.2165,-0.2197,-0.2297,-0.2288,-0.2301,-0.2319,-0.2122,-0.2169,-0.2084,-0.2063,-0.2016,-0.205,-0.2018,-0.1999,-0.201,-0.2019,-0.1918,-0.1916,-0.1915,-0.1914,0,-0.1516,-0.1587,-0.1645,-0.1726,-0.1796,-0.1857,-0.1941,-0.1947,-0.2072,-0.2186,-0.2127,-0.2092,-0.2032,-0.1993,-0.1927,-0.1883,-0.205,-0.1959,-0.1971,-0.2003,-0.1981,-0.1971,-0.1986,-0.1895,-0.1897,-0.1899,-0.19,0,-0.1443,-0.1459,-0.1543,-0.1593,-0.1675,-0.1691,-0.1762,-0.1783,-0.1828,-0.1947,-0.1918,-0.1935,-0.1999,-0.1885,-0.1837,-0.1764,-0.1744,-0.1703,-0.1728,-0.1749,-0.1717,-0.1664,-0.1432,0,0,0,0,0,-0.1358,-0.1359,-0.1399,-0.1447,-0.152,-0.156,-0.1673,-0.1747,-0.1869,-0.1769,-0.1837,-0.1773,-0.1689,-0.1709,-0.1587,-0.1751,-0.1757,-0.1604,-0.1726,-0.1789,-0.1811,-0.1793,0,0,0,0,0,0,-0.1299,-0.1337,-0.1347,-0.1304,-0.1302,-0.1362,-0.1422,-0.1515,-0.1473,-0.16,-0.1553,-0.1655,-0.1591,-0.1704,-0.1539,-0.1545,-0.1584,-0.1633,-0.1628,-0.1777,-0.1797,-0.1814,-0.1803,0,0,0,0,0]},{"header":{"parameterUnit":"m.s-1","parameterCategory":2,"la1":30.2991,"la2":30.254,"lo1":-89.0895,"lo2":-89.0444,"dy":0.0017,"dx":0.0017,"nx":28,"ny":28,"refTime":"2025-11-22T03:00:00:Z","depth":"4","parameterNumber":3,"parameterNumberName":"V-component_of_CURRENTS"},"data":[0,0,0,0,0,0,0,0,0,0,0,0,0,0,0,0,0,0,0,0,0,0,0,0,0,0,0,0,0,0,0,0,0,0,0,0,0,0,0,0,0,0,0,0,0,0,0,0,0,0,0,0,0,0,0,0,0,0,-0.0261,-0.0261,0,-0.0202,-0.0201,-0.02,-0.0168,-0.0168,-0.0168,-0.0168,-0.0053,-0.005,-0.0047,0,0,0,0,0,0,0,0,0,0,0,0,0,-0.0291,-0.0291,-0.0261,-0.026,-0.026,-0.0202,-0.0201,-0.02,-0.0168,-0.0168,-0.0168,-0.0168,-0.0054,-0.005,-0.0046,0,0,0,0,0,0,0,0,0,0,0,0,0,-0.0258,-0.0291,-0.0261,-0.0238,-0.0236,-0.0202,-0.0201,-0.02,-0.0168,-0.0168,-0.0168,-0.0168,-0.0055,-0.005,-0.0046,-0.0014,0,0,-0.0031,-0.0029,0,0,0,0,0,0,0,0,-0.026,-0.0257,-0.0242,-0.024,-0.0237,-0.0194,-0.017,-0.0136,-0.0168,-0.0191,-0.0168,-0.0168,-0.0096,-0.0088,-0.0075,-0.0009,-0.0004,-0.0031,-0.0028,-0.0026,-0.0025,0,0,0,0,0,0,0,-0.0263,-0.0259,-0.0236,-0.0242,-0.0238,-0.0212,-0.0208,-0.0163,-0.0141,-0.0189,-0.0187,-0.0184,-0.0094,-0.0079,-0.0072,-0.0002,-0.0031,-0.0027,-0.0024,-0.0022,0.0101,0.0101,0,0,0,0,0,0,-0.0277,-0.0262,-0.0238,-0.0234,-0.0251,-0.0212,-0.0207,-0.0206,-0.0143,-0.0134,-0.0184,-0.0183,-0.0087,-0.0077,-0.0067,-0.0034,-0.0026,-0.0022,-0.0019,0.01,0.0101,0.0101,0,0,0,0,0,0,-0.0277,-0.0275,-0.024,-0.0248,-0.0242,-0.0212,-0.0211,-0.0205,-0.0193,-0.014,-0.013,-0.0179,-0.0087,-0.0074,-0.0029,-0.0029,-0.002,-0.0015,0.01,0.01,0.0101,0.0037,0,0,0,0,0,0,-0.0279,-0.0276,-0.0282,-0.0249,-0.0242,-0.0226,-0.0211,-0.0204,-0.0192,-0.019,-0.0132,-0.0121,-0.0086,-0.0037,-0.0025,-0.0023,-0.0012,0.0099,0.01,0.0101,0.0039,0.0036,0.0033,0,0,0,0,0,-0.028,-0.0288,-0.0283,-0.028,-0.0251,-0.0227,-0.022,-0.0198,-0.0192,-0.0188,-0.0148,-0.0123,-0.0023,-0.0033,-0.0019,-0.0015,0.0099,0.01,0.0101,0.004,0.0036,0.0033,0,0,0,0,0,0,-0.0304,-0.0284,-0.0278,-0.028,-0.0259,-0.0222,-0.0219,-0.0202,-0.0168,-0.0167,-0.0116,-0.0102,-0.0064,-0.0027,-0.0039,0.0024,0.0042,0.0045,-0.0009,-0.0012,-0.0015,-0.0033,-0.0008,0,0,0,0,0,-0.0314,-0.0316,-0.0288,-0.0291,-0.0283,-0.0252,-0.0241,-0.0225,-0.0191,-0.0177,-0.0137,-0.009,-0.0048,-0.0022,0.0021,0.0058,0.0097,0.007,0.0067,0.0064,0.0061,0.0122,0.0124,0.0104,0.0104,0.0104,0,0,-0.0326,-0.0315,-0.0317,-0.0297,-0.028,-0.0272,-0.0245,-0.0233,-0.0224,-0.0168,-0.0143,-0.01,-0.004,-0.0003,0.0018,0.0027,0.009,0.0066,0.0062,0.0061,0.0123,0.0125,0.0126,0.0105,0.0105,0.0105,0,0,-0.0349,-0.034,-0.0348,-0.0333,-0.0313,-0.0291,-0.029,-0.0255,-0.0238,-0.0206,-0.0166,-0.0122,-0.0059,-0.0016,0.0014,0.0025,0.007,0.0037,0.0011,0.007,0.0072,0.0074,0.0119,0.0126,0.0038,0.0038,0.0038,0,-0.0366,-0.0371,-0.0346,-0.0348,-0.0343,-0.0304,-0.0309,-0.0281,-0.0236,-0.022,-0.0207,-0.0111,-0.0064,-0.0011,-0.0012,0.0017,0.0052,0.0015,0.0065,0.0068,0.0071,0.0117,0.0125,0.0035,0.0035,0.0036,0.0036,0,-0.0389,-0.0396,-0.0399,-0.0391,-0.0379,-0.0377,-0.0341,-0.0322,-0.0297,-0.0266,-0.0214,-0.0147,-0.009,-0.0068,-0.0037,0.0009,0.0026,0.0049,0.0067,0.0069,0.0117,0.0127,0.0031,0.0032,0.0033,0.0033,0,0,-0.0422,-0.0419,-0.0422,-0.0431,-0.0404,-0.0399,-0.0381,-0.0352,-0.0341,-0.0287,-0.0261,-0.0186,-0.0149,-0.0112,-0.0061,-0.0011,0.0038,0.002,0.0024,0.0053,0.0159,0.0136,0.0144,0.0068,0.0069,0.007,0.018,0,-0.0451,-0.0476,-0.0459,-0.0479,-0.0489,-0.0451,-0.0441,-0.0408,-0.0367,-0.0329,-0.0251,-0.0208,-0.0164,-0.014,-0.0081,0.0009,0.0061,0.0006,0.0164,0.0168,0.0139,0.0154,0.0075,0.0188,0.019,0.0192,0.0193,0,-0.0478,-0.0494,-0.0526,-0.0533,-0.0534,-0.0538,-0.0516,-0.0499,-0.0431,-0.0397,-0.0331,-0.0269,-0.0185,-0.0151,0.0006,-0.0034,0.0053,0.0124,0.013,0.0137,0.0163,0.0192,0.0211,0.0209,0.0208,0.0207,0.0206,0,-0.052,-0.0539,-0.0572,-0.0575,-0.0572,-0.058,-0.0574,-0.0526,-0.0511,-0.0438,-0.0412,-0.0303,-0.0246,-0.0122,0.0023,0.0016,0.0194,0.021,0.0274,0.0274,0.0288,0.0285,0.0321,0.0321,0.0321,0.032,0.032,0,-0.0553,-0.058,-0.0601,-0.0619,-0.0659,-0.0636,-0.0653,-0.0624,-0.0576,-0.0552,-0.0454,-0.0399,-0.0237,-0.0113,0.0016,0.0172,0.0197,0.0271,0.0303,0.0259,0.0251,0.0295,0.029,0.0324,0.0324,0.0323,0.0322,0,-0.0588,-0.06,-0.0645,-0.0669,-0.0682,-0.0711,-0.0719,-0.0719,-0.0667,-0.0628,-0.0607,-0.0466,-0.0306,-0.0138,0.0069,0.0156,0.0311,0.0363,0.0295,0.0322,0.0351,0.0342,0.0438,0.0439,0.0439,0.0439,0.0439,0,-0.0605,-0.0633,-0.0693,-0.073,-0.0748,-0.0785,-0.0806,-0.0773,-0.0759,-0.0657,-0.0632,-0.0482,-0.0371,-0.0085,0.0077,0.0312,0.0343,0.0408,0.0382,0.0343,0.0365,0.0356,0.0347,0.0439,0.0439,0.0439,0.0439,0,-0.0639,-0.0666,-0.0704,-0.0786,-0.083,-0.0868,-0.0886,-0.0882,-0.0821,-0.0778,-0.0629,-0.0473,-0.0293,-0.0082,0.0094,0.0265,0.0354,0.041,0.0411,0.0387,0.0345,0.0365,0.0356,0.044,0.044,0.044,0.044,0,-0.0663,-0.0704,-0.0762,-0.0826,-0.0891,-0.0924,-0.0931,-0.0888,-0.0858,-0.073,-0.068,-0.0466,-0.0341,-0.0105,0.0066,0.0218,0.0251,0.0285,0.0293,0.0294,0.0211,0.0134,0.0194,0,0,0,0,0,-0.0679,-0.0726,-0.0796,-0.0864,-0.0928,-0.0955,-0.0968,-0.0955,-0.0896,-0.0793,-0.0729,-0.0547,-0.0276,-0.0151,-0.0001,0.0039,0.0248,0.0214,0.0284,0.0442,0.0442,0.0365,0,0,0,0,0,0,-0.0692,-0.0762,-0.0795,-0.0876,-0.0925,-0.0981,-0.0988,-0.095,-0.0875,-0.0792,-0.0638,-0.0534,-0.0268,-0.0358,-0.0003,0.0043,0.0101,0.0351,0.0353,0.0443,0.0442,0.0442,0.0363,0,0,0,0,0]}]]